Location: Peebles
(55.6412°N, 3.1714°W)
Time: 22:19:05
(UTC+00:00)

deb Agena D - Pass Details

Date: 27 September 2023
Orbit: 794 x 979 km, 99.8° (Epoch: 28 November)

Event Time Altitude Azimuth Distance (km) Brightness Sun altitude
Rises 04:27:14 0° 18° (NNE) 3,695 10.3 -22.2°
Reaches altitude 10° 04:31:04 10° 355° (N) 2,745 9.2 -21.8°
Maximum altitude 04:33:55 14° 327° (NNW) 2,473 8.6 -21.4°
Enters shadow 04:36:32 11° 301° (WNW) 2,688 8.5 -21.1°
